LEGION 4

Last updated on Mon Oct 14 2024 00:02:25 GMT+0000 (Coordinated Universal Time)

1 60453U 24146B 24287.54727324 .00001610 00000+0 38334-3 0 9993 2 60453 45.0371 116.6085 0003246 91.1366 268.9862 14.57640425 8601
UTC large
Height (km)
Speed (km/s)
/
Latitude / Longitude
Inclination (degrees)
Orbital Period (minutes)
Azimuth
Elevation
Range (km)
Doppler Factor

Next 0 passes for location: London (51.5072 / 0.1276)

Sorry there are no passes over London.